{"data":{"norad_id":27438,"intl_designator":"2002-027A","name":"INTELSAT 905 (IS-905)","alt_names":[],"object_type":"PAYLOAD","status":"ACTIVE","operator":null,"country":"ITSO","launch_date":"2002-06-05","launch_site_code":"FRGUI","launch_vehicle":null,"mission":null,"orbit_class":"UNKNOWN","rcs_meters":15.8865,"size_class":null,"mass_kg":null,"dimensions":null,"purposes":["comms"],"wikipedia_slug":null,"has_3d_model":false,"image_url":null,"decayed_at":null,"tle_current":{"epoch":"2026-05-25T02:44:09.886848Z","epoch_age_seconds":69167,"freshness":"FRESH","line1":"1 27438U 02027A   26145.11400332  .00000092  00000+0  00000+0 0  9996","line2":"2 27438   6.6983  70.0753 0004055   3.0798  73.3823  1.00273676 51139","mean_motion":1.00273676,"eccentricity":0.0004055,"inclination_deg":6.6983,"raan_deg":70.0753,"arg_perigee_deg":3.0798,"mean_anomaly_deg":73.3823,"bstar":0,"rev_number":5113,"period_min":1436.0698215552,"perigee_km":35768.967269725,"apogee_km":35803.162437428,"semimajor_km":42164.201853576,"source":"CELESTRAK","updated_at":"2026-05-25T13:38:14.322800Z"}}}